User: anonymous   Login
Location: Unspecified
(0.0000°N, 0.0000°E)
Time: 18:06:39
(UTC+00:00)
Language:

STARLINK-5473 - Orbit

View from above orbital plane
View from above orbital plane
View from above satellite
View from above satellite

Ground track
Ground track

The orbit is defined by the following mean orbital elements,

1 55663U          26145.52189976 +.00000000 +00000-0 +56300-4 0 00001
2 55663  69.9993 330.7180 0002769 264.4040  95.6804 14.98319956    05
Epoch (UTC): 25 May 2026 12:31:32
Eccentricity: 0.0002769
inclination: 69.9993°
perigee height: 570 km
apogee height: 574 km
right ascension of ascending node: 330.7180°
argument of perigee: 264.4040°
revolutions per day: 14.98319956
mean anomaly at epoch: 95.6804°

The dashed part of the orbit path shows where the satellite is in the earth's shadow,  

DLR